Regional Weather Roundup
Issued by NWS Midland/Odessa, TX

Skip options and go directly to product.
Home | Oldest Version | Previous Version | Current Version | All | Text Only | Save Text | Print | Product List | Glossary On

Skip product version selection by date and time.   
186
ASUS44 KMAF 040101
RWRMAF
MIDLAND AREA WEATHER ROUNDUP
NATIONAL WEATHER SERVICE MIDLAND TX
800 PM CDT THU SEP 03 2015

...IN SOUTHWEST TEXAS AND SOUTHEAST NEW MEXICO...

CITY           SKY/WX    TMP DP  RH WIND       PRES   REMARKS
ALPINE         PTCLDY    84  47  27 SE13      30.04S
ANDREWS        FAIR      87  50  27 SE7       29.92S
ARTESIA        MOCLDY    91  50  24 S10       29.90S
BIG SPRING     CLEAR     88  51  28 E8        29.91S
CARLSBAD       MOCLDY    92  45  19 SE13      29.87S
DRYDEN           N/A     92  54  27 SE6       29.85S
FORT STOCKTON  CLEAR     88  49  25 SE13      29.90S
GUAD PASS      CLOUDY    81  48  31 NE14      30.07S
HOBBS          MOCLDY    86  46  25 S9        29.94S
MARFA          PTCLDY    82  50  32 SE14      30.03R
MIDLAND AIRPK  PTCLDY    92  49  23 SE12      29.90S
MIDLAND INTL   PTCLDY    91  51  25 SE9       29.89F
ODESSA         PTCLDY    90  49  24 SE12      29.91S
PECOS          CLEAR     92  46  19 E12       29.84F
PRESIDIO       FAIR      95  49  20 E12       29.83S
SEMINOLE       PTCLDY    89  47  23 S8        29.93F
SNYDER         CLEAR     90  55  30 SE8       29.90S
WINK           PTCLDY    91  50  24 SE10      29.86S
$$
...OTHER STATIONS IN TEXAS...

CITY           SKY/WX    TMP DP  RH WIND       PRES   REMARKS
ABILENE        CLEAR     88  61  40 SE10      29.88S
AMARILLO       PTCLDY    85  53  33 S15       29.92S
AUSTIN         MOCLDY    87  69  54 SE14      29.83S
BROWNSVILLE    CLEAR     83  76  79 SE10      29.82R
CORPUS CHRISTI PTCLDY    85  75  72 E14       29.82R
DALLAS FTW     PTCLDY    88  64  44 SE10      29.85S
DEL RIO        CLEAR     93  59  31 SE7       29.78S
EL PASO        CLOUDY    86  48  26 NW8       29.96R
HOUSTON INT    PTCLDY    82  72  71 SE8       29.85S
LUBBOCK        MOCLDY    86  56  35 SE10      29.92S
SAN ANGELO     CLEAR     89  57  33 E7        29.85S
SAN ANTONIO    MOCLDY    87  66  49 E9        29.86R
WACO           CLEAR     89  65  44 SE9       29.84R
WICHITA FALLS  NOT AVBL
$$
...OTHER LOCATIONS IN NEW MEXICO...

CITY           SKY/WX    TMP DP  RH WIND       PRES   REMARKS
ALAMAGORDO     MOCLDY    84  46  26 S5        29.97S
ALBUQUERQUE    MOCLDY    84  43  23 SW14      30.02R
CANNON AFB     MOCLDY    86  52  30 S15       29.95R
CLOVIS         MOCLDY    84  52  32 S13       29.96S
HOLLOMAN AFB   CLOUDY    87  48  25 SW6       29.95R
ROSWELL        MOCLDY    90  48  23 S7        29.90R
RUIDOSO        MOCLDY    73  45  35 SW9       30.17S
SANTA FE       PTCLDY    79  37  22 W10       30.07R
TRUTH OR CONSE RAIN      69  59  70 W24G31    30.04R
TUCUMCARI      PTCLDY    87  48  25 SW8       29.89S
$$

USA.gov is the U.S. government's official web portal to all federal, state and local government web resources and services.